Location: Unspecified
(43.4354°N, 0.0000°E)
Time: 20:21:32
(UTC+00:00)

Vanguard 2 Rocket - Pass Details

Date: 24 June 2019
Orbit: 554 x 3326 km, 32.9° (Epoch: 16 July)

Event Time Altitude Azimuth Distance (km) Brightness Sun altitude
Rises 22:53:17 0° 254° (WSW) 4,152 10.3 -21.3°
Reaches altitude 10° 22:55:42 10° 249° (WSW) 3,465 9.8 -21.4°
Maximum altitude 23:04:37 51° 177° (S) 2,418 8.6 -21.9°
Drops below altitude 10° 23:19:48 10° 108° (ESE) 5,716 10.7 -22.4°
Sets 23:25:06 0° 105° (ESE) 7,019 11.2 -22.6°
